Sigfox identifier Datetime Temperature Humidity SNR
0039E024 2019-02-20 13:45:52 20.6 23 24.1
0039E024 2019-02-20 13:14:05 20.7 24 24.1
0039E024 2019-02-20 12:42:18 20.6 24 23.5
0039E024 2019-02-20 12:10:31 20.6 25 23.5
0039E024 2019-02-20 11:38:44 20.6 26 22.8
0039E024 2019-02-20 11:06:57 20.6 26 21.9
0039E024 2019-02-20 10:35:12 20.6 27 21.9
0039E024 2019-02-20 10:03:24 20.5 27 20.6
0039E024 2019-02-20 09:31:36 20.6 27 20.7
0039E024 2019-02-20 08:59:48 20.6 27 19
0039E024 2019-02-20 08:28:00 20.8 27 19.1
0039E024 2019-02-20 08:26:46 20.5 27 19
0039E024 2019-02-20 07:54:58 20.6 27 19.3
0039E024 2019-02-20 07:23:12 20.5 27 19.2
0039E024 2019-02-20 06:51:25 20.5 27 19.2
0039E024 2019-02-20 06:19:40 20.6 27 19
0039E024 2019-02-20 05:47:53 20.6 27 19
0039E024 2019-02-20 05:16:06 20.6 27 18.9
0039E024 2019-02-20 04:44:20 20.6 27 18.8
0039E024 2019-02-20 04:12:31 20.6 27 19
0039E024 2019-02-20 03:40:44 20.6 27 18.8
0039E024 2019-02-20 03:08:59 20.6 27 18.5
0039E024 2019-02-20 02:37:09 20.6 27 18.5
0039E024 2019-02-20 02:05:21 20.6 27 18.7
0039E024 2019-02-20 01:33:33 20.6 27 18.6
0039E024 2019-02-20 01:01:46 20.7 27 18.6
0039E024 2019-02-20 00:29:59 20.6 27 20.3
0039E024 2019-02-19 23:58:12 20.6 27 20.2
0039E024 2019-02-19 23:26:25 20.7 27 20.1
0039E024 2019-02-19 22:54:37 20.7 27 20
0039E024 2019-02-19 22:22:51 20.7 27 19.9
0039E024 2019-02-19 21:51:05 20.7 27 19.7
0039E024 2019-02-19 21:19:21 20.7 27 19.7
0039E024 2019-02-19 20:47:33 20.7 27 19.6
0039E024 2019-02-19 20:15:46 20.7 27 19.6
0039E024 2019-02-19 19:43:59 20.7 27 19.4
0039E024 2019-02-19 19:12:12 20.8 27 19.5
0039E024 2019-02-19 18:40:26 20.8 27 19.4
0039E024 2019-02-19 18:08:41 20.8 27 19.5
0039E024 2019-02-19 17:36:54 20.8 28 19.4
0039E024 2019-02-19 17:05:07 20.9 28 19.7
0039E024 2019-02-19 16:33:22 20.9 28 19.9
0039E024 2019-02-19 16:01:37 20.8 28 20
0039E024 2019-02-19 15:29:48 20.8 27 20.1
0039E024 2019-02-19 14:58:01 20.8 27 20.1
0039E024 2019-02-19 14:26:14 20.8 28 20.1
0039E024 2019-02-19 13:54:27 20.8 27 20.3
0039E024 2019-02-19 13:22:38 20.8 27 20.3
0039E024 2019-02-19 12:50:49 20.8 27 20.1
0039E024 2019-02-19 12:19:02 20.8 27 20.3
0039E024 2019-02-19 11:47:15 20.8 27 20.3
0039E024 2019-02-19 11:15:29 20.7 27 18.4
0039E024 2019-02-19 10:43:44 20.8 26 18.5
0039E024 2019-02-19 10:11:53 20.7 26 18.6
0039E024 2019-02-19 09:40:06 20.7 26 18.7
0039E024 2019-02-19 09:08:22 20.7 25 18.9
0039E024 2019-02-19 08:36:34 20.6 25 19
0039E024 2019-02-19 08:04:47 20.6 25 19
0039E024 2019-02-19 07:33:01 20.6 25 19
0039E024 2019-02-19 07:01:13 20.6 25 19
0039E024 2019-02-19 06:29:25 20.9 24 19
0039E024 2019-02-19 06:28:11 20.6 25 18.9
0039E024 2019-02-19 05:56:24 20.6 24 18.7
0039E024 2019-02-19 05:24:38 20.6 24 18.9
0039E024 2019-02-19 04:52:54 20.6 24 18.8
0039E024 2019-02-19 04:21:06 20.6 24 18.8
0039E024 2019-02-19 03:49:20 20.7 24 20.5
0039E024 2019-02-19 03:17:35 20.6 24 21.7
0039E024 2019-02-19 02:45:48 20.6 24 21.6
0039E024 2019-02-19 02:14:03 20.6 24 21.6
0039E024 2019-02-19 01:42:14 20.6 24 21.5
0039E024 2019-02-19 01:10:28 20.6 23 21.4
0039E024 2019-02-19 00:38:41 20.6 23 21.5
0039E024 2019-02-19 00:06:55 20.6 23 21.4
0039E024 2019-02-18 23:35:09 20.7 23 21.6
0039E024 2019-02-18 23:03:24 20.6 23 21.6
0039E024 2019-02-18 22:31:38 20.6 23 21.7
0039E024 2019-02-18 21:59:56 20.6 23 21.7
0039E024 2019-02-18 21:28:06 20.7 22 21.7
0039E024 2019-02-18 20:56:22 20.7 22 21.7
0039E024 2019-02-18 20:24:33 20.7 22 21.8
0039E024 2019-02-18 19:52:47 20.7 22 22
0039E024 2019-02-18 19:21:00 20.7 22 22.2
0039E024 2019-02-18 18:49:14 20.7 22 22.2
0039E024 2019-02-18 18:17:29 20.7 22 22.2
0039E024 2019-02-18 17:45:44 20.7 22 22.3
0039E024 2019-02-18 17:14:00 20.7 21 23.2
0039E024 2019-02-18 16:42:12 20.7 21 23.2
0039E024 2019-02-18 16:10:27 20.8 21 23.2
0039E024 2019-02-18 15:38:40 20.8 21 23.2
0039E024 2019-02-18 15:06:55 20.8 21 22.4
0039E024 2019-02-18 14:35:08 20.8 21 21.5
0039E024 2019-02-18 14:03:26 20.8 20 21.7
0039E024 2019-02-18 13:31:35 20.9 20 22.7
0039E024 2019-02-18 12:59:49 21 20 22.8
0039E024 2019-02-18 12:28:03 21.1 19 22.9
0039E024 2019-02-18 11:56:14 21.1 19 22.9
0039E024 2019-02-18 11:24:28 21 19 22.9
0039E024 2019-02-18 10:52:40 21 19 22.9
0039E024 2019-02-18 10:20:53 21 19 23
0039E024 2019-02-18 09:49:05 20.9 19 23
0039E024 2019-02-18 09:17:17 20.9 18 23.1
0039E024 2019-02-18 08:45:29 20.9 18 23.2
0039E024 2019-02-18 08:13:41 20.8 18 23.9
0039E024 2019-02-18 07:41:52 20.7 18 23.9
0039E024 2019-02-18 07:10:04 20.5 18 23.9
0039E024 2019-02-18 06:38:17 20.4 18 23.8
0039E024 2019-02-18 06:06:31 20.5 18 23.9
0039E024 2019-02-18 05:34:44 20.5 18 24
0039E024 2019-02-18 05:02:58 20.5 18 24.1
0039E024 2019-02-18 04:31:11 20.7 18 24.1
0039E024 2019-02-18 04:29:57 20.4 18 23.5
0039E024 2019-02-18 03:58:09 20.4 18 23.6
0039E024 2019-02-18 03:26:20 20.4 18 23.7
0039E024 2019-02-18 02:54:33 20.4 18 23.8
0039E024 2019-02-18 02:22:46 20.4 18 23.8
0039E024 2019-02-18 01:50:59 20.5 18 23.8
0039E024 2019-02-18 01:19:11 20.6 18 23.9
0039E024 2019-02-18 00:47:23 20.5 19 23.2
0039E024 2019-02-18 00:15:36 20.6 18 23.2
0039E024 2019-02-17 23:43:48 20.6 19 23.2
0039E024 2019-02-17 23:12:01 20.6 19 23.2
0039E024 2019-02-17 22:40:13 20.6 19 23.3
0039E024 2019-02-17 22:08:25 20.6 19 23.3
0039E024 2019-02-17 21:36:36 20.5 19 23.3
0039E024 2019-02-17 21:04:47 20.5 19 23.3
0039E024 2019-02-17 20:32:58 20.5 19 23.2
0039E024 2019-02-17 20:01:08 20.6 19 23.1
0039E024 2019-02-17 19:29:20 20.6 19 22.4
0039E024 2019-02-17 18:57:32 20.7 19 22.5
0039E024 2019-02-17 18:25:44 20.6 20 22.6
0039E024 2019-02-17 17:53:57 20.6 19 22.7
0039E024 2019-02-17 17:22:09 20.6 19 22.6
0039E024 2019-02-17 16:50:21 20.6 19 22.5
0039E024 2019-02-17 16:18:33 20.6 19 22.5
0039E024 2019-02-17 15:46:45 20.6 20 22.5
0039E024 2019-02-17 15:14:59 20.6 20 22.3
0039E024 2019-02-17 14:43:11 20.6 20 22.3
0039E024 2019-02-17 14:11:23 20.7 20 22.3
0039E024 2019-02-17 13:39:34 20.7 20 22.3
0039E024 2019-02-17 13:07:44 20.8 20 23.1
0039E024 2019-02-17 12:35:56 20.8 20 23.1
0039E024 2019-02-17 12:04:09 20.7 20 23.1
0039E024 2019-02-17 11:32:21 20.8 20 23.1
0039E024 2019-02-17 11:00:33 20.7 20 23
0039E024 2019-02-17 10:28:46 20.7 20 23.1
0039E024 2019-02-17 09:56:58 20.7 21 23.8
0039E024 2019-02-17 09:25:09 20.6 21 23.7
0039E024 2019-02-17 08:53:22 20.6 21 23.8
0039E024 2019-02-17 08:21:35 20.6 21 23.8
0039E024 2019-02-17 07:49:49 20.7 21 23.7
0039E024 2019-02-17 07:18:03 20.7 21 23.7
0039E024 2019-02-17 06:46:16 20.7 21 23.8
0039E024 2019-02-17 06:14:29 20.7 21 23.9
0039E024 2019-02-17 05:42:44 20.7 22 23.8
0039E024 2019-02-17 05:10:58 20.7 22 23.7
0039E024 2019-02-17 04:39:12 20.7 22 23.7
0039E024 2019-02-17 04:07:27 20.7 22 23.8
0039E024 2019-02-17 03:35:41 20.8 23 23.8
0039E024 2019-02-17 03:03:55 20.8 23 23.8
0039E024 2019-02-17 02:32:10 21 23 23.8
0039E024 2019-02-17 02:30:56 20.7 23 23.9
0039E024 2019-02-17 01:59:10 20.7 24 23.9
0039E024 2019-02-17 01:27:24 20.7 24 23.9
0039E024 2019-02-17 00:55:37 20.8 24 23.9
0039E024 2019-02-17 00:23:52 20.7 24 23.2
0039E024 2019-02-16 23:52:07 20.7 24 23.2
0039E024 2019-02-16 23:20:22 20.7 24 23.2
0039E024 2019-02-16 22:48:37 20.7 24 23.2
0039E024 2019-02-16 22:16:51 20.8 24 23.2
0039E024 2019-02-16 21:45:05 20.8 25 23.2
0039E024 2019-02-16 21:13:18 20.8 25 22.5
0039E024 2019-02-16 20:41:34 20.7 25 22.6
0039E024 2019-02-16 20:09:48 20.8 25 22.6
0039E024 2019-02-16 19:38:03 20.7 25 22.5
0039E024 2019-02-16 19:06:18 20.7 25 22.6
0039E024 2019-02-16 18:34:31 20.6 25 22.6
0039E024 2019-02-16 18:02:46 20.6 25 22.6
0039E024 2019-02-16 17:31:00 20.7 25 22.5
0039E024 2019-02-16 16:59:14 20.8 25 22.5
0039E024 2019-02-16 16:27:28 20.9 25 22.6
0039E024 2019-02-16 15:55:41 20.8 25 22.6
0039E024 2019-02-16 15:23:54 20.9 25 22.5
0039E024 2019-02-16 14:52:08 20.9 25 22.6
0039E024 2019-02-16 14:20:22 20.9 25 22.6
0039E024 2019-02-16 13:48:35 20.8 25 23.3
0039E024 2019-02-16 13:16:49 20.8 25 23.3
0039E024 2019-02-16 12:45:04 20.8 25 23.3
0039E024 2019-02-16 12:13:19 20.8 25 23.3
0039E024 2019-02-16 11:41:34 20.8 25 23.3
0039E024 2019-02-16 11:09:49 20.7 25 23.4
0039E024 2019-02-16 10:38:03 20.7 25 23.4
0039E024 2019-02-16 10:06:17 20.7 25 23.3
0039E024 2019-02-16 09:34:31 20.7 25 23.4
0039E024 2019-02-16 09:02:45 20.8 25 23.3
0039E024 2019-02-16 08:31:00 20.7 25 23.3
0039E024 2019-02-16 07:59:14 20.7 25 23.1
0039E024 2019-02-16 07:27:29 20.7 26 23.1
0039E024 2019-02-16 06:55:42 20.7 26 23.1
0039E024 2019-02-16 06:23:54 20.7 26 23.7
0039E024 2019-02-16 05:52:07 20.7 26 23.7
0039E024 2019-02-16 05:20:20 20.7 26 23.8
0039E024 2019-02-16 04:48:34 20.7 26 23.7
0039E024 2019-02-16 04:16:46 20.7 26 23.8
0039E024 2019-02-16 03:44:59 20.7 26 23.7
0039E024 2019-02-16 03:13:12 20.7 26 23.7
0039E024 2019-02-16 02:41:26 20.7 26 23.7
0039E024 2019-02-16 02:09:40 20.7 25 23.6
0039E024 2019-02-16 01:37:53 20.8 26 23.5
0039E024 2019-02-16 01:06:06 20.8 26 23.5
0039E024 2019-02-16 00:34:20 20.9 25 22.8
0039E024 2019-02-16 00:33:06 20.7 26 22.8
0039E024 2019-02-16 00:01:19 20.8 26 22.7
0039E024 2019-02-15 23:29:32 20.8 26 22.6
0039E024 2019-02-15 22:57:45 20.8 26 22.6
0039E024 2019-02-15 22:25:57 20.9 26 22.4
0039E024 2019-02-15 21:54:08 20.9 26 22.4
0039E024 2019-02-15 21:22:20 20.9 26 22.4
0039E024 2019-02-15 20:50:32 21 25 22.4
0039E024 2019-02-15 20:18:44 21.1 25 22.4
0039E024 2019-02-15 19:46:55 21.2 25 22.5
0039E024 2019-02-15 19:15:08 21.3 25 22.6
0039E024 2019-02-15 18:43:21 21.5 25 22.6
0039E024 2019-02-15 18:11:34 21.5 25 22.7
0039E024 2019-02-15 17:39:49 21.5 25 22.7
0039E024 2019-02-15 17:08:05 21.5 24 22.6
0039E024 2019-02-15 16:36:20 21.4 24 22.6
0039E024 2019-02-15 16:04:34 21.3 24 22.6
0039E024 2019-02-15 15:32:48 21.4 24 22.6
0039E024 2019-02-15 15:01:01 21.4 23 22.7
0039E024 2019-02-15 14:29:15 21.4 23 22.7
0039E024 2019-02-15 13:57:30 21.4 24 23.4
0039E024 2019-02-15 13:25:46 21.4 24 23.5
0039E024 2019-02-15 12:53:59 21.4 24 23.5
0039E024 2019-02-15 12:22:12 21.3 24 23.6
0039E024 2019-02-15 11:50:26 21.3 24 23.6
0039E024 2019-02-15 11:18:40 21.3 24 23.6
0039E024 2019-02-15 10:46:52 21.3 24 23.6
0039E024 2019-02-15 10:15:06 21.3 25 23.7
0039E024 2019-02-15 09:43:19 21.2 25 23.7
0039E024 2019-02-15 09:11:34 21.2 25 23.7
0039E024 2019-02-15 08:39:49 21.2 25 23.7
0039E024 2019-02-15 08:08:04 21.1 25 23.8
0039E024 2019-02-15 07:36:18 21 25 23.8
0039E024 2019-02-15 07:04:31 21 25 23.8
0039E024 2019-02-15 06:32:46 21 25 23.8
0039E024 2019-02-15 06:01:00 21 25 23.8
0039E024 2019-02-15 05:29:15 21 25 23.8
0039E024 2019-02-15 04:57:30 21 25 23.8
0039E024 2019-02-15 04:25:44 20.9 26 23.1
0039E024 2019-02-15 03:53:56 21 26 23
0039E024 2019-02-15 03:22:10 21 26 22.8
0039E024 2019-02-15 02:50:24 20.9 26 22.8
0039E024 2019-02-15 02:18:38 20.9 26 22.7
0039E024 2019-02-15 01:46:52 20.9 26 22.5
0039E024 2019-02-15 01:15:05 20.9 26 22.4
0039E024 2019-02-15 00:43:20 21 26 21.3
0039E024 2019-02-15 00:11:33 21 26 21.1
0039E024 2019-02-14 23:39:48 21 26 20.9
0039E024 2019-02-14 23:08:02 21 25 20.6
0039E024 2019-02-14 22:36:16 21.3 25 20.4
0039E024 2019-02-14 22:35:01 21.1 26 20.3
0039E024 2019-02-14 22:03:16 21.1 25 20.1
0039E024 2019-02-14 21:31:29 21 25 19.9
0039E024 2019-02-14 20:59:44 21 25 21.2
0039E024 2019-02-14 20:27:57 21.1 24 21.2
0039E024 2019-02-14 19:56:09 21.3 24 21.2
0039E024 2019-02-14 19:24:23 21.4 24 21.2
0039E024 2019-02-14 18:52:36 21.6 24 21.2
0039E024 2019-02-14 18:20:48 21.6 24 21.1
0039E024 2019-02-14 17:48:59 21.6 24 21.1
0039E024 2019-02-14 17:17:12 21.6 24 21.2
0039E024 2019-02-14 16:45:25 21.7 24 21.1
0039E024 2019-02-14 16:13:38 21.7 24 21.1
0039E024 2019-02-14 15:41:50 21.7 23 21.2
0039E024 2019-02-14 15:10:02 21.7 23 21.2
0039E024 2019-02-14 14:38:13 21.6 24 21.4
0039E024 2019-02-14 14:06:27 21.6 23 21.5
0039E024 2019-02-14 13:34:39 21.6 23 21.6
0039E024 2019-02-14 13:02:52 21.4 23 21.7
0039E024 2019-02-14 12:31:06 21.4 22 21.8
0039E024 2019-02-14 11:59:19 21.3 22 21.9
0039E024 2019-02-14 11:27:32 21.2 22 22
0039E024 2019-02-14 10:55:45 21.1 23 22.1
0039E024 2019-02-14 10:23:58 21 24 22.2
0039E024 2019-02-14 09:52:11 20.8 23 22.2
0039E024 2019-02-14 09:20:24 20.9 23 22.1
0039E024 2019-02-14 08:48:38 20.8 23 22.2
0039E024 2019-02-14 08:16:51 20.8 23 22.3
0039E024 2019-02-14 07:45:04 20.8 24 21.2
0039E024 2019-02-14 07:13:18 20.8 25 21.2
0039E024 2019-02-14 06:41:31 20.8 25 21.2
0039E024 2019-02-14 06:09:43 20.8 25 21.1
0039E024 2019-02-14 05:37:55 20.8 25 21
0039E024 2019-02-14 05:06:08 20.8 25 21
0039E024 2019-02-14 04:34:20 20.8 25 20.7
0039E024 2019-02-14 04:02:32 20.8 25 20.4
0039E024 2019-02-14 03:30:45 20.8 25 20.4
0039E024 2019-02-14 02:58:58 20.8 25 20.2
0039E024 2019-02-14 02:27:11 20.8 25 20.3
0039E024 2019-02-14 01:55:25 20.9 25 20.3
0039E024 2019-02-14 01:23:38 20.9 24 20.2
0039E024 2019-02-14 00:51:51 20.9 24 20.1
0039E024 2019-02-14 00:20:05 20.9 24 19.9
0039E024 2019-02-13 23:48:18 20.9 24 20.1
0039E024 2019-02-13 23:16:32 20.9 24 20.1
0039E024 2019-02-13 22:44:45 21 24 20.2
0039E024 2019-02-13 22:12:57 21 24 20.1
0039E024 2019-02-13 21:41:10 21.1 24 20.1
0039E024 2019-02-13 21:09:23 21.1 24 20.2
0039E024 2019-02-13 20:37:36 21.4 24 20.1
0039E024 2019-02-13 20:36:22 21.2 24 20.3
0039E024 2019-02-13 20:04:34 21.3 24 20.2
0039E024 2019-02-13 19:32:47 21.3 25 20.2
0039E024 2019-02-13 19:01:00 21.4 25 20.4
0039E024 2019-02-13 18:29:13 21.4 25 20.5
0039E024 2019-02-13 17:57:24 21.6 26 20.6
0039E024 2019-02-13 17:25:37 21.5 26 20.5
0039E024 2019-02-13 16:53:49 21.5 26 20.7
0039E024 2019-02-13 16:22:02 21.3 26 20.9
0039E024 2019-02-13 15:50:14 21.3 25 21.2
0039E024 2019-02-13 15:18:27 21.2 25 21.4
0039E024 2019-02-13 14:46:40 21 25 21.4
0039E024 2019-02-13 14:14:53 20.9 24 21.6
0039E024 2019-02-13 13:43:05 20.9 24 21.6
0039E024 2019-02-13 13:11:16 21.1 24 21.6
0039E024 2019-02-13 12:39:28 21.1 24 21.7
0039E024 2019-02-13 12:07:41 21.2 24 21.9
0039E024 2019-02-13 11:35:53 21.1 25 22
0039E024 2019-02-13 11:04:06 21 25 22
0039E024 2019-02-13 10:32:18 20.7 25 22
0039E024 2019-02-13 10:00:30 20.8 23 22
0039E024 2019-02-13 09:28:43 20.8 23 22.1
0039E024 2019-02-13 08:56:54 20.8 22 22.1
0039E024 2019-02-13 08:25:06 20.8 21 22.1
0039E024 2019-02-13 07:53:17 20.8 20 22.2
0039E024 2019-02-13 07:21:28 20.8 18 22.1
0039E024 2019-02-13 06:49:39 20.7 18 22.2
0039E024 2019-02-13 06:17:52 20.8 18 22.1
0039E024 2019-02-13 05:46:05 20.8 18 22
0039E024 2019-02-13 05:14:17 20.8 18 21.9
0039E024 2019-02-13 04:42:29 20.8 18 21.8
0039E024 2019-02-13 04:10:41 20.8 18 22.8
0039E024 2019-02-13 03:38:54 20.8 18 23.4
0039E024 2019-02-13 03:07:07 20.8 18 23.4
0039E024 2019-02-13 02:35:19 20.8 18 23.3
0039E024 2019-02-13 02:03:32 20.9 17 23.3
0039E024 2019-02-13 01:31:46 20.9 17 23.2
0039E024 2019-02-13 00:59:58 20.9 17 23.2
0039E024 2019-02-13 00:28:11 20.9 17 23
0039E024 2019-02-12 23:56:25 20.9 18 23
0039E024 2019-02-12 23:24:39 21 18 23
0039E024 2019-02-12 22:52:53 20.9 18 23
0039E024 2019-02-12 22:21:05 21 17 22.9
0039E024 2019-02-12 21:49:19 21.1 18 22.8
0039E024 2019-02-12 21:17:31 21.1 19 23.5
0039E024 2019-02-12 20:45:43 21.2 20 23.4
0039E024 2019-02-12 20:13:56 21.2 20 23.3
0039E024 2019-02-12 19:42:08 21.2 20 23.3
0039E024 2019-02-12 19:10:22 21.2 19 23.3
0039E024 2019-02-12 18:38:34 21.3 19 24
0039E024 2019-02-12 18:37:21 21.1 19 24
0039E024 2019-02-12 18:05:33 21 18 24
0039E024 2019-02-12 17:33:44 21.1 18 24.1
0039E024 2019-02-12 17:01:57 21.2 18 24.2
0039E024 2019-02-12 16:30:08 21.3 18 24.1
0039E024 2019-02-12 15:58:19 21.4 18 24.1
0039E024 2019-02-12 15:26:32 21.4 18 24.1
0039E024 2019-02-12 14:54:45 21.4 18 23.4
0039E024 2019-02-12 14:22:57 21.2 18 23.5
0039E024 2019-02-12 13:51:10 21.1 18 23.5
0039E024 2019-02-12 13:19:22 21.2 18 23.5
0039E024 2019-02-12 12:47:35 21.4 17 23.5
0039E024 2019-02-12 12:15:47 21.4 17 23.4
0039E024 2019-02-12 11:44:00 21.4 18 23.5
0039E024 2019-02-12 11:12:13 21.3 18 23.5
0039E024 2019-02-12 10:40:25 21.3 18 23.5
0039E024 2019-02-12 10:08:40 21.2 19 23.4
0039E024 2019-02-12 09:36:53 21.1 20 23.4
0039E024 2019-02-12 09:05:07 21 21 23.5
0039E024 2019-02-12 08:33:21 20.9 22 22.7
0039E024 2019-02-12 08:01:35 20.8 21 22.9
0039E024 2019-02-12 07:29:49 20.8 23 22.9
0039E024 2019-02-12 06:58:02 20.8 25 22.7
0039E024 2019-02-12 06:26:16 20.8 25 22.8
0039E024 2019-02-12 05:54:28 20.8 25 21.8
0039E024 2019-02-12 05:22:41 20.8 26 21.7
0039E024 2019-02-12 04:50:56 20.8 26 21.8
0039E024 2019-02-12 04:19:07 20.9 26 21.7
0039E024 2019-02-12 03:47:19 20.9 26 21.7
0039E024 2019-02-12 03:15:32 20.9 26 21.9
0039E024 2019-02-12 02:43:45 20.9 26 21.9
0039E024 2019-02-12 02:11:59 20.9 26 20.4
0039E024 2019-02-12 01:40:13 20.9 26 20.4
0039E024 2019-02-12 01:08:26 20.9 26 20.2
0039E024 2019-02-12 00:36:39 20.9 26 20.1
0039E024 2019-02-12 00:04:51 20.9 26 20.1
0039E024 2019-02-11 23:33:04 21 26 20
0039E024 2019-02-11 23:01:16 21 26 20.3
0039E024 2019-02-11 22:29:29 21.1 27 20.3
0039E024 2019-02-11 21:57:42 21.2 27 20
0039E024 2019-02-11 21:25:54 21.3 27 20.1
0039E024 2019-02-11 20:54:07 21.3 27 19.9
0039E024 2019-02-11 20:22:18 21.4 27 19.9
0039E024 2019-02-11 19:50:32 21.5 27 19.5
0039E024 2019-02-11 19:18:44 21.7 26 19.5
0039E024 2019-02-11 18:46:55 21.8 26 18.2
0039E024 2019-02-11 18:15:07 22 26 18.4
0039E024 2019-02-11 17:43:19 22.3 26 19.2
0039E024 2019-02-11 17:11:31 22.3 26 14.3
0039E024 2019-02-11 16:39:40 22.4 30 0